Time,TemperatureF,DewpointF,PressureIn,WindDirection,WindDirectionDegrees,WindSpeedMPH,WindSpeedGustMPH,Humidity,HourlyPrecipIn,Conditions,Clouds,dailyrainin,SoftwareType,DateUTC
2013-01-27 00:22:00,48.0,47.0,29.93,West,260,6.0,8.0,96,0.00,,,-99.99,,2013-01-27 08:22:00,
2013-01-27 00:31:00,48.0,47.0,29.93,West,260,6.0,8.0,96,0.00,,,-99.99,,2013-01-27 08:31:00,
2013-01-27 00:41:00,48.0,47.0,29.93,West,260,6.0,8.0,96,0.00,,,-99.99,,2013-01-27 08:41:00,
2013-01-27 00:52:00,48.0,47.0,29.93,West,260,6.0,8.0,96,0.00,,,-99.99,,2013-01-27 08:52:00,
2013-01-27 01:21:00,48.0,47.0,29.93,WSW,250,3.0,9.0,96,0.01,,,-99.99,,2013-01-27 09:21:00,
2013-01-27 01:32:00,48.0,47.0,29.93,WSW,250,3.0,9.0,96,0.01,,,-99.99,,2013-01-27 09:32:00,
2013-01-27 01:41:00,48.0,47.0,29.93,WSW,250,3.0,9.0,96,0.01,,,-99.99,,2013-01-27 09:41:00,
2013-01-27 01:51:00,48.0,47.0,29.93,WSW,250,3.0,9.0,96,0.01,,,-99.99,,2013-01-27 09:51:00,
2013-01-27 02:21:00,48.0,47.0,29.92,West,260,6.0,12.0,97,0.01,,,-99.99,,2013-01-27 10:21:00,
2013-01-27 02:31:00,48.0,47.0,29.92,West,260,6.0,12.0,97,0.01,,,-99.99,,2013-01-27 10:31:00,
2013-01-27 02:41:00,48.0,47.0,29.92,West,260,6.0,12.0,97,0.01,,,-99.99,,2013-01-27 10:41:00,
2013-01-27 02:51:00,48.0,47.0,29.92,West,260,6.0,12.0,97,0.01,,,-99.99,,2013-01-27 10:51:00,
2013-01-27 03:21:00,48.0,47.0,29.92,North,0,0.0,9.0,96,0.01,,,-99.99,,2013-01-27 11:21:00,
2013-01-27 03:32:00,48.0,47.0,29.92,North,0,0.0,9.0,96,0.01,,,-99.99,,2013-01-27 11:32:00,
2013-01-27 03:42:00,48.0,47.0,29.92,North,0,0.0,9.0,96,0.01,,,-99.99,,2013-01-27 11:42:00,
2013-01-27 03:52:00,48.0,47.0,29.92,North,0,0.0,9.0,96,0.01,,,-99.99,,2013-01-27 11:52:00,
2013-01-27 04:21:00,47.0,46.0,29.91,West,260,3.0,11.0,96,0.01,,,-99.99,,2013-01-27 12:21:00,
2013-01-27 04:32:00,47.0,46.0,29.91,West,260,3.0,11.0,96,0.01,,,-99.99,,2013-01-27 12:32:00,
2013-01-27 04:42:00,47.0,46.0,29.91,West,260,3.0,11.0,96,0.01,,,-99.99,,2013-01-27 12:42:00,
2013-01-27 04:52:00,47.0,46.0,29.91,West,260,3.0,11.0,96,0.01,,,-99.99,,2013-01-27 12:52:00,
2013-01-27 05:22:00,47.0,46.0,29.91,North,0,0.0,8.0,96,0.00,,,-99.99,,2013-01-27 13:22:00,
2013-01-27 05:32:00,47.0,46.0,29.91,North,0,0.0,8.0,96,0.00,,,-99.99,,2013-01-27 13:32:00,
2013-01-27 05:42:00,47.0,46.0,29.91,North,0,0.0,8.0,96,0.00,,,-99.99,,2013-01-27 13:42:00,
2013-01-27 05:52:00,47.0,46.0,29.91,North,0,0.0,8.0,96,0.00,,,-99.99,,2013-01-27 13:52:00,
2013-01-27 06:22:00,47.0,46.0,29.91,West,260,6.0,9.0,97,0.00,,,-99.99,,2013-01-27 14:22:00,
2013-01-27 06:32:00,47.0,46.0,29.91,West,260,6.0,9.0,97,0.00,,,-99.99,,2013-01-27 14:32:00,
2013-01-27 06:42:00,47.0,46.0,29.91,West,260,6.0,9.0,97,0.00,,,-99.99,,2013-01-27 14:42:00,
2013-01-27 06:52:00,47.0,46.0,29.91,West,260,6.0,9.0,97,0.00,,,-99.99,,2013-01-27 14:52:00,
2013-01-27 07:22:00,46.0,45.0,29.92,North,0,0.0,8.0,97,0.01,,,-99.99,,2013-01-27 15:22:00,
2013-01-27 07:32:00,46.0,45.0,29.92,North,0,0.0,8.0,97,0.01,,,-99.99,,2013-01-27 15:32:00,
2013-01-27 07:42:00,46.0,45.0,29.92,North,0,0.0,8.0,97,0.01,,,-99.99,,2013-01-27 15:42:00,
2013-01-27 07:52:00,46.0,45.0,29.92,North,0,0.0,8.0,97,0.01,,,-99.99,,2013-01-27 15:52:00,
2013-01-27 08:21:00,46.0,45.0,29.94,North,-999,0.0,0.0,96,0.00,,,-99.99,,2013-01-27 16:21:00,
2013-01-27 08:32:00,46.0,45.0,29.94,North,-999,0.0,0.0,96,0.00,,,-99.99,,2013-01-27 16:32:00,
2013-01-27 08:42:00,46.0,45.0,29.94,North,-999,0.0,0.0,96,0.00,,,-99.99,,2013-01-27 16:42:00,
2013-01-27 08:52:00,46.0,45.0,29.94,North,-999,0.0,0.0,96,0.00,,,-99.99,,2013-01-27 16:52:00,
2013-01-27 09:21:00,46.0,45.0,29.94,North,0,0.0,7.0,96,0.00,,,-99.99,,2013-01-27 17:21:00,
2013-01-27 09:32:00,46.0,45.0,29.94,North,0,0.0,7.0,96,0.00,,,-99.99,,2013-01-27 17:32:00,
2013-01-27 09:42:00,46.0,45.0,29.94,North,0,0.0,7.0,96,0.00,,,-99.99,,2013-01-27 17:42:00,
2013-01-27 09:52:00,46.0,45.0,29.94,North,0,0.0,7.0,96,0.00,,,-99.99,,2013-01-27 17:52:00,
2013-01-27 10:22:00,46.0,45.0,29.95,West,270,3.0,7.0,96,0.00,,,-99.99,,2013-01-27 18:22:00,
2013-01-27 10:32:00,46.0,45.0,29.95,West,270,3.0,7.0,96,0.00,,,-99.99,,2013-01-27 18:32:00,
2013-01-27 10:42:00,46.0,45.0,29.95,West,270,3.0,7.0,96,0.00,,,-99.99,,2013-01-27 18:42:00,
2013-01-27 10:52:00,46.0,45.0,29.95,West,270,3.0,7.0,96,0.00,,,-99.99,,2013-01-27 18:52:00,
2013-01-27 11:22:00,47.0,45.0,29.95,West,260,7.0,13.0,93,0.00,,,-99.99,,2013-01-27 19:22:00,
2013-01-27 11:32:00,47.0,45.0,29.95,West,260,7.0,13.0,93,0.00,,,-99.99,,2013-01-27 19:32:00,
2013-01-27 11:41:00,47.0,45.0,29.95,West,260,7.0,13.0,93,0.00,,,-99.99,,2013-01-27 19:41:00,
2013-01-27 11:51:00,47.0,45.0,29.95,West,260,7.0,13.0,93,0.00,,,-99.99,,2013-01-27 19:51:00,
2013-01-27 12:22:00,49.0,46.0,29.92,West,260,9.0,15.0,89,0.00,,,-99.99,,2013-01-27 20:22:00,
2013-01-27 12:32:00,49.0,46.0,29.92,West,260,9.0,15.0,89,0.00,,,-99.99,,2013-01-27 20:32:00,
2013-01-27 12:42:00,49.0,46.0,29.92,West,260,9.0,15.0,89,0.00,,,-99.99,,2013-01-27 20:42:00,
2013-01-27 12:52:00,49.0,46.0,29.92,West,260,9.0,15.0,89,0.00,,,-99.99,,2013-01-27 20:52:00,
2013-01-27 13:22:00,47.0,44.0,29.91,West,260,10.0,21.0,88,0.00,,,-99.99,,2013-01-27 21:22:00,
2013-01-27 13:32:00,47.0,44.0,29.91,West,260,10.0,21.0,88,0.00,,,-99.99,,2013-01-27 21:32:00,
2013-01-27 13:42:00,47.0,44.0,29.91,West,260,10.0,21.0,88,0.00,,,-99.99,,2013-01-27 21:42:00,
2013-01-27 13:52:00,47.0,44.0,29.91,West,260,10.0,21.0,88,0.00,,,-99.99,,2013-01-27 21:52:00,
2013-01-27 14:21:00,45.0,41.0,29.90,WSW,250,9.0,18.0,86,0.00,,,-99.99,,2013-01-27 22:21:00,
2013-01-27 14:32:00,45.0,41.0,29.90,WSW,250,9.0,18.0,86,0.00,,,-99.99,,2013-01-27 22:32:00,
2013-01-27 14:42:00,45.0,41.0,29.90,WSW,250,9.0,18.0,86,0.00,,,-99.99,,2013-01-27 22:42:00,
2013-01-27 14:51:00,45.0,41.0,29.90,WSW,250,9.0,18.0,86,0.00,,,-99.99,,2013-01-27 22:51:00,
2013-01-27 15:21:00,45.0,41.0,29.90,West,260,6.0,18.0,85,0.00,,,-99.99,,2013-01-27 23:21:00,
2013-01-27 15:32:00,45.0,41.0,29.90,West,260,6.0,18.0,85,0.00,,,-99.99,,2013-01-27 23:32:00,
2013-01-27 15:41:00,45.0,41.0,29.90,West,260,6.0,18.0,85,0.00,,,-99.99,,2013-01-27 23:41:00,
2013-01-27 15:52:00,45.0,41.0,29.90,West,260,6.0,18.0,85,0.00,,,-99.99,,2013-01-27 23:52:00,
2013-01-27 16:21:00,43.0,39.0,29.90,West,260,8.0,15.0,85,0.00,,,-99.99,,2013-01-28 00:21:00,
2013-01-27 16:32:00,43.0,39.0,29.90,West,260,8.0,15.0,85,0.00,,,-99.99,,2013-01-28 00:32:00,
2013-01-27 16:41:00,43.0,39.0,29.90,West,260,8.0,15.0,85,0.00,,,-99.99,,2013-01-28 00:41:00,
2013-01-27 16:51:00,43.0,39.0,29.90,West,260,8.0,15.0,85,0.00,,,-99.99,,2013-01-28 00:51:00,
2013-01-27 17:21:00,41.0,37.0,29.90,WSW,250,9.0,16.0,86,0.00,,,-99.99,,2013-01-28 01:21:00,
2013-01-27 17:32:00,41.0,37.0,29.90,WSW,250,9.0,16.0,86,0.00,,,-99.99,,2013-01-28 01:32:00,
2013-01-27 17:42:00,41.0,37.0,29.90,WSW,250,9.0,16.0,86,0.00,,,-99.99,,2013-01-28 01:42:00,
2013-01-27 17:51:00,41.0,37.0,29.90,WSW,250,9.0,16.0,86,0.00,,,-99.99,,2013-01-28 01:51:00,
2013-01-27 18:21:00,40.0,36.0,29.91,WSW,250,7.0,14.0,87,0.00,,,-99.99,,2013-01-28 02:21:00,
2013-01-27 18:32:00,40.0,36.0,29.91,WSW,250,7.0,14.0,87,0.00,,,-99.99,,2013-01-28 02:32:00,
2013-01-27 18:42:00,40.0,36.0,29.91,WSW,250,7.0,14.0,87,0.00,,,-99.99,,2013-01-28 02:42:00,
2013-01-27 18:52:00,40.0,36.0,29.91,WSW,250,7.0,14.0,87,0.00,,,-99.99,,2013-01-28 02:52:00,
2013-01-27 19:21:00,39.0,36.0,29.93,WSW,250,7.0,18.0,90,0.00,,,-99.99,,2013-01-28 03:21:00,
2013-01-27 19:32:00,39.0,36.0,29.93,WSW,250,7.0,18.0,90,0.00,,,-99.99,,2013-01-28 03:32:00,
2013-01-27 19:41:00,39.0,36.0,29.93,WSW,250,7.0,18.0,90,0.00,,,-99.99,,2013-01-28 03:41:00,
2013-01-27 19:52:00,39.0,36.0,29.93,WSW,250,7.0,18.0,90,0.00,,,-99.99,,2013-01-28 03:52:00,
2013-01-27 20:21:00,38.0,35.0,29.93,WSW,250,4.0,17.0,89,0.00,,,-99.99,,2013-01-28 04:21:00,
2013-01-27 20:32:00,38.0,35.0,29.93,WSW,250,4.0,17.0,89,0.00,,,-99.99,,2013-01-28 04:32:00,
2013-01-27 20:41:00,38.0,35.0,29.93,WSW,250,4.0,17.0,89,0.00,,,-99.99,,2013-01-28 04:41:00,
2013-01-27 20:52:00,38.0,35.0,29.93,WSW,250,4.0,17.0,89,0.00,,,-99.99,,2013-01-28 04:52:00,
2013-01-27 21:21:00,38.0,36.0,29.93,WSW,250,5.0,15.0,91,0.00,,,-99.99,,2013-01-28 05:21:00,
2013-01-27 21:31:00,38.0,36.0,29.93,WSW,250,5.0,15.0,91,0.00,,,-99.99,,2013-01-28 05:31:00,
2013-01-27 21:41:00,38.0,36.0,29.93,WSW,250,5.0,15.0,91,0.00,,,-99.99,,2013-01-28 05:41:00,
2013-01-27 21:52:00,38.0,36.0,29.93,WSW,250,5.0,15.0,91,0.00,,,-99.99,,2013-01-28 05:52:00,
2013-01-27 22:21:00,38.0,36.0,29.93,West,260,14.0,17.0,94,0.00,,,-99.99,,2013-01-28 06:21:00,
2013-01-27 22:32:00,38.0,36.0,29.93,West,260,14.0,17.0,94,0.00,,,-99.99,,2013-01-28 06:32:00,
2013-01-27 22:42:00,38.0,36.0,29.93,West,260,14.0,17.0,94,0.00,,,-99.99,,2013-01-28 06:42:00,
2013-01-27 22:52:00,38.0,36.0,29.93,West,260,14.0,17.0,94,0.00,,,-99.99,,2013-01-28 06:52:00,
2013-01-27 23:21:00,37.0,35.0,29.95,West,260,4.0,12.0,93,0.00,,,-99.99,,2013-01-28 07:21:00,
2013-01-27 23:31:00,37.0,35.0,29.95,West,260,4.0,12.0,93,0.00,,,-99.99,,2013-01-28 07:31:00,
2013-01-27 23:41:00,37.0,35.0,29.95,West,260,4.0,12.0,93,0.00,,,-99.99,,2013-01-28 07:41:00,
2013-01-27 23:51:00,37.0,35.0,29.95,West,260,4.0,12.0,93,0.00,,,-99.99,,2013-01-28 07:51:00,